Regional Weather Roundup
Issued by NWS Jackson, KY

Home | Current Version | Previous Version | Graphics & Text | Print | Product List | Glossary On
Versions: 1 2 3 4 5 6 7 8 9 10 11 12 13 14 15 16 17 18 19 20 21 22 23 24 25 26 27 28
000
ASUS43 KJKL 231210
RWRJKL

EAST KENTUCKY HOURLY WEATHER ROUNDUP
NATIONAL WEATHER SERVICE JACKSON KY
700 AM EST FRI FEB 23 2018

NOTE: "FAIR" INDICATES FEW OR NO CLOUDS BELOW 12,000 FEET WITH
NO SIGNIFICANT WEATHER AND/OR OBSTRUCTIONS TO VISIBILITY.

* THESE REPORTS ARE NOT UNDER NWS QUALITY CONTROL AND MAY NOT
  REPORT WEATHER SUCH AS PRECIPITATION AND FOG.

KYZ079-080-083-085-087-088-110-112-115-119-120-231300
...EASTERN KENTUCKY...

CITY           SKY/WX    TMP DP  RH WIND       PRES   REMARKS
JACKSON          N/A     59  56  89 VRB5      30.30F
6HR MIN TEMP:  53; 6HR MAX TEMP:  59;

LONDON           N/A     58  56  93 S5        30.32R
6HR MIN TEMP:  52; 6HR MAX TEMP:  59;

SOMERSET*        N/A     61  61 100 S5        30.32R
WILLIAMSBURG*    N/A     59  59 100 SE5       30.32S
MIDDLESBORO*     N/A     64  58  82 S7        30.35S
6HR MIN TEMP:  52; 6HR MAX TEMP:  67;

HARLAN APT*      N/A     57  55  94 SE5       30.35S
PIKE CO APT*     N/A     57  57 100 SE6       30.33S
BIG SANDY APT*   N/A     58  57  96 CALM      30.32S
6HR MIN TEMP:  49; 6HR MAX TEMP:  58;

MOREHEAD APT*    N/A     52  50  93 S7        30.29S
ASHLAND*       MOCLDY    47  46  97 E3        30.29F
$$

KYZ035-036-041-042-044-050-067-078-099-231300
...CENTRAL KENTUCKY...

CITY           SKY/WX    TMP DP  RH WIND       PRES   REMARKS
MT STERLING*   CLOUDY    59  57  94 SW7G16    30.28R
FLEMING/MASON* CLOUDY    50  50 100 SE6       30.25F FOG
DANVILLE*      LGT RAIN  59  59 100 SW6       30.30R
LEXINGTON      HVY RAIN  60  57  89 W12G46    30.28R FOG
6HR MIN TEMP:  53; 6HR MAX TEMP:  62; 6HR PCP:  0.12;

FRANKFORT      LGT RAIN  52  49  89 SE3       30.25F
6HR MIN TEMP:  50; 6HR MAX TEMP:  52; 6HR PCP:  0.36;

LOUISVILLE     LGT RAIN  55  54  96 S10       30.22F
6HR MIN TEMP:  49; 6HR MAX TEMP:  55; 6HR PCP:  1.25;

LEBANON*         N/A     59  59 100 S13G18    30.28R
GLASGOW*       CLOUDY    61  61 100 S3        30.28F
BOWLING GREEN  LGT RAIN  61  61 100 CALM      30.27S
6HR MIN TEMP:  55; 6HR MAX TEMP:  66; 6HR PCP:  0.21;

$$

KYZ091>093-OHZ055-061-077-WVZ005-015-034-035-042-231300
...SOUTHERN OHIO/WEST VIRGINIA...

CITY           SKY/WX    TMP DP  RH WIND       PRES   REMARKS
COVINGTON      LGT RAIN  52  52 100 SE7       30.21F FOG
COLUMBUS       LGT RAIN  45  45 100 SE8       30.26F FOG
DAYTON         RAIN      48  48 100 S17G26    30.19F VSB 1/2
WILMINGTON     RAIN      49  49 100 SE6       30.24F FOG
HUNTINGTON     CLOUDY    48  46  93 E3        30.29F FOG
CHARLESTON     MOCLDY    48  48 100 CALM      30.30F FOG
BECKLEY        MOCLDY    58  56  93 SE10      30.40R
BLUEFIELD      CLOUDY    56  54  93 CALM      30.43R
LOGAN CO APT*  PTSUNNY   61  57  88 CALM      30.34S
$$

VAZ002-007-008-TNZ017-027-036-066-071-231300
...SOUTHWEST VIRGINIA/EAST TENNESSEE...

CITY           SKY/WX    TMP DP  RH WIND       PRES   REMARKS
WISE*            N/A     59  59 100 S5        30.40F
JONESVILLE*      N/A     50  50 100 CALM      30.40R FOG
ABINGDON*        N/A     55  55 100 E6        30.40S
BRISTOL          N/A     51  51 100 CALM      30.39R
MORRISTOWN*    MOSUNNY   54  54 100 CALM      30.37S
SEVIERVILLE*   SUNNY     50  50 100 CALM      30.37S
KNOXVILLE      MOCLDY    58  57  97 CALM      30.35S
LAFOLLETTE*    PTSUNNY   59  59 100 CALM      30.38S
OAK RIDGE        N/A     58  58 100 SW3       30.37S FOG
CROSSVILLE       N/A     60  57  89 S7        30.36R
NASHVILLE        N/A     58  56  93 CALM      30.29F
$$

...KEY TO REMARKS...
VSB - VISIBILITY IN MILES
WCI - WIND CHILL INDEX
HX  - HEAT INDEX

$$




USA.gov is the U.S. government's official web portal to all federal, state and local government web resources and services.